Regional Weather Roundup
Issued by NWS Burlington, VT

Home | Current Version | Previous Version | Text Only | Print | Product List | Glossary On
Versions: 1 2 3 4 5 6 7 8 9 10 11 12 13 14 15 16 17 18 19 20 21 22 23 24 25 26 27 28 29 30 31 32 33 34 35 36 37 38 39 40 41 42 43 44 45 46 47 48 49 50
000
ASUS41 KBTV 161530
RWRBTV
VERMONT REGIONAL WEATHER ROUNDUP
NATIONAL WEATHER SERVICE BURLINGTON VT
1100 AM EDT WED AUG 16 2017

NOTE: "FAIR" INDICATES FEW OR NO CLOUDS BELOW 12,000 FEET WITH NO
SIGNIFICANT WEATHER AND/OR OBSTRUCTIONS TO VISIBILITY.

* THESE REPORTS ARE NOT UNDER NWS QUALITY CONTROL AND/OR DO NOT
  REPORT WEATHER SUCH AS PRECIPITATION AND FOG.

VTZ001>019-161600-
_____VERMONT_____


CITY           SKY/WX    TMP DP  RH WIND       PRES   REMARKS
BURLINGTON     MOSUNNY   69  49  48 NW14      30.04S
MONTPELIER     MOSUNNY   65  57  75 W8        30.06S
MORRISVILLE    SUNNY     65  46  50 N12G18    30.04R
ST. JOHNSBURY*   N/A     67  52  58 MISG      30.00R
LYNDONVILLE*   FAIR      64  48  56 NW9       30.04R
MIDDLEBURY*    FAIR      68  52  56 N10G18    30.02S
RUTLAND*       PTSUNNY   68  59  73 N9        30.02R
SPRINGFIELD    CLOUDY    73  55  53 VRB7      29.99S
HIGHGATE*      FAIR      67  49  53 N7        30.04S
NEWPORT*       FAIR      63  49  59 N8        30.03S
BENNINGTON     MOSUNNY   73  62  68 W7        30.00S
SUTTON*          N/A      0 N/A N/A MISG        N/A
ISLAND POND*     N/A     63 N/A N/A NW7         N/A
GALLUP MILLS*    N/A     64 N/A N/A MISG        N/A
UNION VILLAGE*   N/A     70 N/A N/A MISG        N/A
MT. MANSFIELD*   N/A     52 N/A N/A NW24        N/A

_____LAKE CHAMPLAIN_____


CITY           SKY/WX    TMP DP  RH WIND       PRES   REMARKS
BURTON ISLAND*   N/A     68  52  56 N1          N/A
COLCHESTER RF*   N/A     66  50  55 N13         N/A
DIAMOND ISL*     N/A     64  52  63 N20         N/A

$$

NYZ007-026>031-035-052-083-087-161600-
_____NORTHERN NEW YORK_____


CITY           SKY/WX    TMP DP  RH WIND       PRES   REMARKS
PLATTSBURGH    MOSUNNY   68  48  48 NE7       30.04R
SARANAC LAKE   SUNNY     63  53  70 VRB3      30.06S
MASSENA        SUNNY     68  52  56 NE5       30.09R
OGDENSBURG*    FAIR      69  52  54 N5        30.09R
POTSDAM*       SUNNY     66  52  59 N7        30.08S
STARK FALLS*     N/A     64 N/A N/A N2          N/A
WATERTOWN      MOSUNNY   69  55  60 N10       30.08S
FT DRUM        SUNNY     67  51  57 N8        30.08R
ALBANY         PTSUNNY   77  61  57 NE9       30.00R
GLENS FALLS    CLOUDY    71  61  70 E7        30.00R

$$
NHZ002-005-011-161600-
_____NEW HAMPSHIRE_____


CITY           SKY/WX    TMP DP  RH WIND       PRES   REMARKS
LEBANON        CLOUDY    74  60  61 NW8       29.97F
KEENE            N/A    N/A N/A N/A MISG        N/A
MT WASHINGTON  FOG       41  41 100 NW47        N/A  VSB 0   WCI  27
PLYMOUTH       PTSUNNY   71  57  62 NW10G18   29.97R
WHITEFIELD     MOSUNNY   68  54  60 W6        30.00S

$$

_____REGIONAL QUEBEC LOCATIONS_____


CITY           SKY/WX    TMP DP  RH WIND       PRES   REMARKS
MONTREAL       MOSUNNY   68  50  52 W6        30.04R
QUEBEC CITY    MOSUNNY   64  43  45 NW13G21   29.95F
SHERBROOKE     MOSUNNY   63  50  63 W12G17    30.00F

_____REGIONAL ONTARIO LOCATIONS_____


CITY           SKY/WX    TMP DP  RH WIND       PRES   REMARKS
OTTAWA         MOSUNNY   68  50  52 NW13      30.08S

______KEY______
VSB  - VISIBILITY IN MILES
WCI  - WIND CHILL INDEX
HX   - HEAT INDEX
$$
NNNN



USA.gov is the U.S. government's official web portal to all federal, state and local government web resources and services.